星链-34387 (STARLINK-34387)

导读 | 星芒AI

STARLINK-34387 是 SpaceX Starlink 卫星互联网项目中的一颗低轨道卫星。该卫星属于 Starlink 任务的第 16 批次(5-16),于 2023 年 4 月 4 日由猎鹰 9 号火箭从肯尼迪航天中心发射升空。它运行在约 550 公里的高度,旨在为全球提供高速互联网服务。该卫星采用先进推进系统和激光通信技术,以提高网络性能和减少延迟,是 SpaceX 构建全球宽带网络的重要组成部分。

基本信息
目录编号:
64315
目录名称:
STARLINK-34387
国际标识:
2025-123AA
轨道中心:
EARTH
卫星名称:
星链-34387
卫星全名:
星链-34387 (STARLINK-34387)
卫星状态:
在轨 (已飞行154 天)
发射日期:
2025-06-08 UTC
国别 :
美国 (US)
星等 :
--
轨道信息
数据来源 国际轨道数据 AOE轨道数据
星历时间 2025-11-08T20:56:33+0800
23小时前
查看轨道信息
2025-11-03T04:00:00+0800
6天前
查看轨道信息
半长轴 6950.194km 6950.206km
偏心率 0.0003028 0.0002927
轨道倾角 70.001° 69.998°
近地点辐角 263.574° 264.527°
升交点赤经 139.823° 154.210°
平近点角 96.507° 286.476°
近地点 569.954km 570.036km
远地点 574.164km 574.106km
周期 96.107分钟 96.107分钟
每日圈数 14.983299 14.983258
详细信息
固有亮度:
5
最大亮度:
2.5
卫星平台:
Starlink V1.0
覆盖范围:
全球
运营商:
太空探索技术公司
运营商所在国:
美国
制造商(研发单位):
太空探索技术公司
制造商所在国:
美国
使用方式:
暂无
卫星简介
Starlink 计划是 SpaceX 推出的全球卫星互联网项目,通过发射低轨道卫星,为全球尤其是偏远地区提供高速、低延迟的互联网服务。自 2019 年起,Starlink 已部署数千颗卫星,旨在缩小全球数字鸿沟,推动互联网普及。该项目还为军事、航空等行业提供通信支持,带来广泛经济效益。
2D轨道图
3D轨道图
轨道高度分析图
轨道倾角分析图
轨道综合分析图
查看轨道综合分析图